Time,TemperatureF,DewpointF,PressureIn,WindDirection,WindDirectionDegrees,WindSpeedMPH,WindSpeedGustMPH,Humidity,HourlyPrecipIn,Conditions,Clouds,dailyrainin,SoftwareType,DateUTC
2013-02-28 00:04:00,28.0,22.0,30.01,North,6,6.0,9.0,77,0.00,,,0.00,Meteo,2013-02-28 06:04:00,
2013-02-28 00:09:00,28.0,22.0,30.02,North,6,6.0,10.0,77,0.00,,,0.00,Meteo,2013-02-28 06:09:00,
2013-02-28 00:14:00,28.0,22.0,30.02,NNE,18,6.0,7.0,77,0.00,,,0.00,Meteo,2013-02-28 06:14:00,
2013-02-28 00:19:00,28.0,22.0,30.02,NNE,12,6.0,10.0,77,0.00,,,0.00,Meteo,2013-02-28 06:19:00,
2013-02-28 00:24:00,28.0,22.0,30.02,NNE,24,4.0,7.0,77,0.00,,,0.00,Meteo,2013-02-28 06:24:00,
2013-02-28 00:29:00,28.0,22.0,30.02,NNE,13,6.0,8.0,77,0.00,,,0.00,Meteo,2013-02-28 06:29:00,
2013-02-28 00:34:00,28.0,21.0,30.02,NNE,16,7.0,11.0,76,0.00,,,0.00,Meteo,2013-02-28 06:34:00,
2013-02-28 00:39:00,28.0,22.0,30.02,North,5,5.0,8.0,77,0.00,,,0.00,Meteo,2013-02-28 06:39:00,
2013-02-28 00:44:00,28.0,22.0,30.02,NNE,15,7.0,9.0,77,0.00,,,0.00,Meteo,2013-02-28 06:44:00,
2013-02-28 00:49:00,28.0,22.0,30.02,NNE,17,4.0,6.0,77,0.00,,,0.00,Meteo,2013-02-28 06:49:00,
2013-02-28 00:55:00,28.0,22.0,30.02,North,4,5.0,8.0,77,0.00,,,0.00,Meteo,2013-02-28 06:55:00,
2013-02-28 01:00:00,28.0,22.0,30.02,NNE,15,5.0,7.0,77,0.00,,,0.00,Meteo,2013-02-28 07:00:00,
2013-02-28 01:05:00,28.0,22.0,30.03,NNE,31,5.0,7.0,77,0.00,,,0.00,Meteo,2013-02-28 07:05:00,
2013-02-28 01:10:00,28.0,21.0,30.03,NNE,13,7.0,12.0,75,0.00,,,0.00,Meteo,2013-02-28 07:10:00,
2013-02-28 01:15:00,28.0,21.0,30.03,North,1,7.0,10.0,75,0.00,,,0.00,Meteo,2013-02-28 07:15:00,
2013-02-28 01:20:00,28.0,21.0,30.03,North,4,5.0,8.0,74,0.00,,,0.00,Meteo,2013-02-28 07:20:00,
2013-02-28 01:25:00,28.0,21.0,30.03,NNE,16,5.0,9.0,75,0.00,,,0.00,Meteo,2013-02-28 07:25:00,
2013-02-28 01:30:00,28.0,21.0,30.03,NNE,14,5.0,6.0,75,0.00,,,0.00,Meteo,2013-02-28 07:30:00,
2013-02-28 01:35:00,28.0,21.0,30.03,North,11,7.0,10.0,75,0.00,,,0.00,Meteo,2013-02-28 07:35:00,
2013-02-28 01:40:00,28.0,21.0,30.03,North,9,5.0,6.0,76,0.00,,,0.00,Meteo,2013-02-28 07:40:00,
2013-02-28 01:45:00,27.0,20.0,30.03,North,9,5.0,8.0,76,0.00,,,0.00,Meteo,2013-02-28 07:45:00,
2013-02-28 01:50:00,27.0,20.0,30.03,North,5,4.0,8.0,76,0.00,,,0.00,Meteo,2013-02-28 07:50:00,
2013-02-28 01:55:00,27.0,21.0,30.03,NNE,12,4.0,6.0,77,0.00,,,0.00,Meteo,2013-02-28 07:55:00,
2013-02-28 02:00:00,27.0,20.0,30.03,North,2,5.0,11.0,76,0.00,,,0.00,Meteo,2013-02-28 08:00:00,
2013-02-28 02:05:00,27.0,20.0,30.03,NNE,15,6.0,8.0,76,0.00,,,0.00,Meteo,2013-02-28 08:05:00,
2013-02-28 02:10:00,27.0,20.0,30.03,NNE,18,4.0,6.0,75,0.00,,,0.00,Meteo,2013-02-28 08:10:00,
2013-02-28 02:15:00,27.0,20.0,30.04,North,359,6.0,9.0,76,0.00,,,0.00,Meteo,2013-02-28 08:15:00,
2013-02-28 02:20:00,27.0,21.0,30.04,North,357,6.0,9.0,77,0.00,,,0.00,Meteo,2013-02-28 08:20:00,
2013-02-28 02:25:00,27.0,21.0,30.04,North,2,5.0,9.0,77,0.00,,,0.00,Meteo,2013-02-28 08:25:00,
2013-02-28 02:31:00,27.0,21.0,30.04,North,2,5.0,9.0,78,0.00,,,0.00,Meteo,2013-02-28 08:31:00,
2013-02-28 02:36:00,27.0,21.0,30.04,North,4,4.0,6.0,78,0.00,,,0.00,Meteo,2013-02-28 08:36:00,
2013-02-28 02:41:00,27.0,21.0,30.04,NNE,13,4.0,7.0,78,0.00,,,0.00,Meteo,2013-02-28 08:41:00,
2013-02-28 02:46:00,27.0,21.0,30.04,North,8,4.0,9.0,78,0.00,,,0.00,Meteo,2013-02-28 08:46:00,
2013-02-28 02:51:00,27.0,21.0,30.04,North,3,7.0,10.0,78,0.00,,,0.00,Meteo,2013-02-28 08:51:00,
2013-02-28 02:56:00,27.0,21.0,30.04,North,3,5.0,7.0,78,0.00,,,0.00,Meteo,2013-02-28 08:56:00,
2013-02-28 03:01:00,27.0,21.0,30.04,North,1,7.0,13.0,78,0.00,,,0.00,Meteo,2013-02-28 09:01:00,
2013-02-28 03:06:00,27.0,21.0,30.04,North,5,5.0,9.0,78,0.00,,,0.00,Meteo,2013-02-28 09:06:00,
2013-02-28 03:11:00,27.0,21.0,30.05,North,2,7.0,10.0,78,0.00,,,0.00,Meteo,2013-02-28 09:11:00,
2013-02-28 03:16:00,27.0,21.0,30.04,North,5,5.0,8.0,79,0.00,,,0.00,Meteo,2013-02-28 09:16:00,
2013-02-28 03:21:00,27.0,22.0,30.05,NNE,14,6.0,8.0,80,0.00,,,0.00,Meteo,2013-02-28 09:21:00,
2013-02-28 03:26:00,26.0,21.0,30.05,NNE,12,6.0,12.0,81,0.00,,,0.00,Meteo,2013-02-28 09:26:00,
2013-02-28 03:31:00,26.0,21.0,30.05,North,359,7.0,11.0,82,0.00,,,0.00,Meteo,2013-02-28 09:31:00,
2013-02-28 03:36:00,26.0,21.0,30.05,North,357,6.0,9.0,82,0.00,,,0.00,Meteo,2013-02-28 09:36:00,
2013-02-28 03:41:00,26.0,22.0,30.05,North,4,6.0,11.0,83,0.00,,,0.00,Meteo,2013-02-28 09:41:00,
2013-02-28 03:46:00,26.0,22.0,30.05,NNE,12,5.0,9.0,83,0.00,,,0.00,Meteo,2013-02-28 09:46:00,
2013-02-28 03:51:00,26.0,22.0,30.06,North,2,6.0,11.0,83,0.00,,,0.00,Meteo,2013-02-28 09:51:00,
2013-02-28 03:56:00,26.0,22.0,30.06,North,7,6.0,9.0,83,0.00,,,0.00,Meteo,2013-02-28 09:56:00,
2013-02-28 04:01:00,26.0,22.0,30.06,NNE,14,6.0,11.0,83,0.00,,,0.00,Meteo,2013-02-28 10:01:00,
2013-02-28 04:06:00,26.0,22.0,30.06,NNE,15,4.0,6.0,83,0.00,,,0.00,Meteo,2013-02-28 10:06:00,
2013-02-28 04:11:00,26.0,22.0,30.06,North,11,6.0,7.0,83,0.00,,,0.00,Meteo,2013-02-28 10:11:00,
2013-02-28 04:16:00,26.0,22.0,30.06,North,5,5.0,9.0,83,0.00,,,0.00,Meteo,2013-02-28 10:16:00,
2013-02-28 04:21:00,26.0,22.0,30.06,North,6,4.0,5.0,84,0.00,,,0.00,Meteo,2013-02-28 10:21:00,
2013-02-28 04:27:00,26.0,22.0,30.06,North,357,6.0,13.0,84,0.00,,,0.00,Meteo,2013-02-28 10:27:00,
2013-02-28 04:33:00,26.0,22.0,30.06,North,0,6.0,10.0,84,0.00,,,0.00,Meteo,2013-02-28 10:33:00,
2013-02-28 04:38:00,26.0,22.0,30.06,North,357,8.0,14.0,83,0.00,,,0.00,Meteo,2013-02-28 10:38:00,
2013-02-28 04:43:00,26.0,22.0,30.07,North,6,5.0,7.0,84,0.00,,,0.00,Meteo,2013-02-28 10:43:00,
2013-02-28 04:49:00,26.0,22.0,30.07,North,6,5.0,9.0,84,0.00,,,0.00,Meteo,2013-02-28 10:49:00,
2013-02-28 04:54:00,26.0,22.0,30.07,North,357,5.0,6.0,83,0.00,,,0.00,Meteo,2013-02-28 10:54:00,
2013-02-28 04:59:00,26.0,22.0,30.07,North,3,5.0,8.0,83,0.00,,,0.00,Meteo,2013-02-28 10:59:00,
2013-02-28 05:04:00,26.0,22.0,30.08,North,354,7.0,11.0,84,0.00,,,0.00,Meteo,2013-02-28 11:04:00,
2013-02-28 05:09:00,26.0,22.0,30.08,NNE,15,5.0,8.0,84,0.00,,,0.00,Meteo,2013-02-28 11:09:00,
2013-02-28 05:14:00,26.0,22.0,30.08,North,6,5.0,6.0,83,0.00,,,0.00,Meteo,2013-02-28 11:14:00,
2013-02-28 05:19:00,26.0,22.0,30.09,NNE,14,7.0,12.0,83,0.00,,,0.00,Meteo,2013-02-28 11:19:00,
2013-02-28 05:24:00,26.0,21.0,30.09,North,6,5.0,9.0,82,0.00,,,0.00,Meteo,2013-02-28 11:24:00,
2013-02-28 05:29:00,26.0,22.0,30.09,North,0,5.0,8.0,83,0.00,,,0.00,Meteo,2013-02-28 11:29:00,
2013-02-28 05:34:00,26.0,22.0,30.09,North,10,6.0,9.0,83,0.00,,,0.00,Meteo,2013-02-28 11:34:00,
2013-02-28 05:39:00,26.0,22.0,30.09,North,9,7.0,10.0,83,0.00,,,0.00,Meteo,2013-02-28 11:39:00,
2013-02-28 05:44:00,26.0,21.0,30.09,NNE,18,4.0,5.0,82,0.00,,,0.00,Meteo,2013-02-28 11:44:00,
2013-02-28 05:49:00,26.0,22.0,30.09,NNE,14,5.0,7.0,83,0.00,,,0.00,Meteo,2013-02-28 11:49:00,
2013-02-28 05:54:00,26.0,21.0,30.09,North,10,5.0,10.0,82,0.00,,,0.00,Meteo,2013-02-28 11:54:00,
2013-02-28 05:59:00,26.0,21.0,30.09,NNE,13,6.0,9.0,81,0.00,,,0.00,Meteo,2013-02-28 11:59:00,
2013-02-28 06:04:00,26.0,21.0,30.10,NNE,12,6.0,9.0,80,0.00,,,0.00,Meteo,2013-02-28 12:04:00,
2013-02-28 06:09:00,26.0,20.0,30.10,NNE,24,6.0,10.0,79,0.00,,,0.00,Meteo,2013-02-28 12:09:00,
2013-02-28 06:14:00,26.0,20.0,30.10,North,4,5.0,6.0,79,0.00,,,0.00,Meteo,2013-02-28 12:14:00,
2013-02-28 06:19:00,26.0,20.0,30.10,NE,39,6.0,10.0,78,0.00,,,0.00,Meteo,2013-02-28 12:19:00,
2013-02-28 06:24:00,26.0,20.0,30.10,NNE,16,5.0,6.0,78,0.00,,,0.00,Meteo,2013-02-28 12:24:00,
2013-02-28 06:29:00,26.0,20.0,30.10,NNE,21,4.0,6.0,77,0.00,,,0.00,Meteo,2013-02-28 12:29:00,
2013-02-28 06:34:00,26.0,20.0,30.10,NNE,29,5.0,7.0,77,0.00,,,0.00,Meteo,2013-02-28 12:34:00,
2013-02-28 06:39:00,26.0,20.0,30.11,North,7,5.0,7.0,77,0.00,,,0.00,Meteo,2013-02-28 12:39:00,
2013-02-28 06:44:00,26.0,20.0,30.11,North,7,5.0,7.0,77,0.00,,,0.00,Meteo,2013-02-28 12:44:00,
2013-02-28 06:49:00,26.0,20.0,30.11,NNE,13,4.0,8.0,77,0.00,,,0.00,Meteo,2013-02-28 12:49:00,
2013-02-28 06:54:00,26.0,20.0,30.11,NNE,16,5.0,8.0,77,0.00,,,0.00,Meteo,2013-02-28 12:54:00,
2013-02-28 06:59:00,26.0,20.0,30.11,NNE,21,5.0,7.0,77,0.00,,,0.00,Meteo,2013-02-28 12:59:00,
2013-02-28 07:04:00,26.0,19.0,30.12,NNE,14,5.0,9.0,76,0.00,,,0.00,Meteo,2013-02-28 13:04:00,
2013-02-28 07:09:00,26.0,19.0,30.12,NNE,23,6.0,8.0,76,0.00,,,0.00,Meteo,2013-02-28 13:09:00,
2013-02-28 07:15:00,26.0,19.0,30.12,North,9,4.0,6.0,76,0.00,,,0.00,Meteo,2013-02-28 13:15:00,
2013-02-28 07:20:00,26.0,19.0,30.12,North,360,6.0,13.0,76,0.00,,,0.00,Meteo,2013-02-28 13:20:00,
2013-02-28 07:25:00,26.0,19.0,30.12,North,1,4.0,8.0,75,0.00,,,0.00,Meteo,2013-02-28 13:25:00,
2013-02-28 07:30:00,26.0,19.0,30.12,North,11,4.0,10.0,76,0.00,,,0.00,Meteo,2013-02-28 13:30:00,
2013-02-28 07:35:00,26.0,19.0,30.12,NNE,14,4.0,6.0,76,0.00,,,0.00,Meteo,2013-02-28 13:35:00,
2013-02-28 07:40:00,26.0,19.0,30.12,North,5,5.0,10.0,75,0.00,,,0.00,Meteo,2013-02-28 13:40:00,
2013-02-28 07:45:00,26.0,19.0,30.13,North,353,7.0,13.0,75,0.00,,,0.00,Meteo,2013-02-28 13:45:00,
2013-02-28 07:50:00,26.0,19.0,30.13,North,359,5.0,8.0,75,0.00,,,0.00,Meteo,2013-02-28 13:50:00,
2013-02-28 07:55:00,26.0,19.0,30.13,NNE,12,5.0,7.0,76,0.00,,,0.00,Meteo,2013-02-28 13:55:00,
2013-02-28 08:00:00,26.0,20.0,30.13,North,9,4.0,6.0,77,0.00,,,0.00,Meteo,2013-02-28 14:00:00,
2013-02-28 08:05:00,25.0,19.0,30.13,NNE,14,4.0,6.0,77,0.00,,,0.00,Meteo,2013-02-28 14:05:00,
2013-02-28 08:10:00,25.0,19.0,30.13,North,7,4.0,10.0,78,0.00,,,0.00,Meteo,2013-02-28 14:10:00,
2013-02-28 08:15:00,26.0,20.0,30.13,North,7,6.0,8.0,78,0.00,,,0.00,Meteo,2013-02-28 14:15:00,
2013-02-28 08:20:00,26.0,19.0,30.14,North,10,4.0,6.0,76,0.00,,,0.00,Meteo,2013-02-28 14:20:00,
2013-02-28 08:25:00,26.0,19.0,30.14,NNE,15,4.0,5.0,76,0.00,,,0.00,Meteo,2013-02-28 14:25:00,
2013-02-28 08:30:00,26.0,19.0,30.14,North,11,6.0,8.0,74,0.00,,,0.00,Meteo,2013-02-28 14:30:00,
2013-02-28 08:35:00,26.0,19.0,30.14,NNE,21,4.0,7.0,75,0.00,,,0.00,Meteo,2013-02-28 14:35:00,
2013-02-28 08:40:00,26.0,19.0,30.14,North,2,5.0,6.0,75,0.00,,,0.00,Meteo,2013-02-28 14:40:00,
2013-02-28 08:45:00,26.0,19.0,30.14,NNE,27,5.0,7.0,75,0.00,,,0.00,Meteo,2013-02-28 14:45:00,
2013-02-28 08:50:00,26.0,19.0,30.14,North,360,6.0,8.0,75,0.00,,,0.00,Meteo,2013-02-28 14:50:00,
2013-02-28 08:55:00,26.0,19.0,30.14,North,9,3.0,5.0,75,0.00,,,0.00,Meteo,2013-02-28 14:55:00,
2013-02-28 09:00:00,26.0,19.0,30.14,North,8,3.0,4.0,75,0.00,,,0.00,Meteo,2013-02-28 15:00:00,
2013-02-28 09:05:00,26.0,19.0,30.14,NNE,18,5.0,7.0,73,0.00,,,0.00,Meteo,2013-02-28 15:05:00,
2013-02-28 09:10:00,26.0,19.0,30.14,NNE,17,5.0,8.0,73,0.00,,,0.00,Meteo,2013-02-28 15:10:00,
2013-02-28 09:15:00,26.0,19.0,30.14,North,10,4.0,7.0,75,0.00,,,0.00,Meteo,2013-02-28 15:15:00,
2013-02-28 09:20:00,26.0,19.0,30.14,North,5,5.0,7.0,75,0.00,,,0.00,Meteo,2013-02-28 15:20:00,
2013-02-28 09:25:00,25.0,19.0,30.14,NNE,15,5.0,8.0,76,0.00,,,0.00,Meteo,2013-02-28 15:25:00,
2013-02-28 09:30:00,25.0,19.0,30.15,North,7,5.0,9.0,77,0.00,,,0.00,Meteo,2013-02-28 15:30:00,
2013-02-28 09:35:00,25.0,19.0,30.15,North,10,5.0,7.0,77,0.00,,,0.00,Meteo,2013-02-28 15:35:00,
2013-02-28 09:40:00,25.0,19.0,30.15,NNE,19,3.0,5.0,77,0.00,,,0.00,Meteo,2013-02-28 15:40:00,
2013-02-28 09:45:00,25.0,19.0,30.15,North,4,6.0,10.0,77,0.00,,,0.00,Meteo,2013-02-28 15:45:00,
2013-02-28 09:50:00,25.0,19.0,30.15,North,6,4.0,5.0,77,0.00,,,0.00,Meteo,2013-02-28 15:50:00,
2013-02-28 09:55:00,25.0,19.0,30.15,North,11,4.0,8.0,77,0.00,,,0.00,Meteo,2013-02-28 15:55:00,
2013-02-28 10:00:00,25.0,19.0,30.15,NE,38,5.0,9.0,76,0.00,,,0.00,Meteo,2013-02-28 16:00:00,
2013-02-28 10:06:00,25.0,19.0,30.15,North,10,4.0,6.0,76,0.00,,,0.00,Meteo,2013-02-28 16:06:00,
2013-02-28 10:11:00,26.0,19.0,30.15,NNE,16,5.0,6.0,76,0.00,,,0.00,Meteo,2013-02-28 16:11:00,
2013-02-28 10:16:00,26.0,19.0,30.15,North,9,4.0,9.0,76,0.00,,,0.00,Meteo,2013-02-28 16:16:00,
2013-02-28 10:21:00,26.0,20.0,30.16,NNE,27,5.0,6.0,77,0.00,,,0.00,Meteo,2013-02-28 16:21:00,
2013-02-28 10:26:00,26.0,20.0,30.16,NE,52,6.0,11.0,77,0.00,,,0.00,Meteo,2013-02-28 16:26:00,
2013-02-28 10:31:00,26.0,19.0,30.16,NE,38,3.0,4.0,75,0.00,,,0.00,Meteo,2013-02-28 16:31:00,
2013-02-28 10:36:00,26.0,19.0,30.16,NE,41,6.0,9.0,73,0.00,,,0.00,Meteo,2013-02-28 16:36:00,
2013-02-28 10:41:00,26.0,19.0,30.16,NE,51,9.0,15.0,73,0.00,,,0.00,Meteo,2013-02-28 16:41:00,
2013-02-28 10:46:00,26.0,18.0,30.17,NE,39,7.0,9.0,72,0.00,,,0.00,Meteo,2013-02-28 16:46:00,
2013-02-28 10:51:00,26.0,19.0,30.17,NNE,13,5.0,7.0,73,0.00,,,0.00,Meteo,2013-02-28 16:51:00,
2013-02-28 10:57:00,26.0,18.0,30.17,NNE,22,4.0,6.0,72,0.00,,,0.00,Meteo,2013-02-28 16:57:00,
2013-02-28 11:02:00,26.0,19.0,30.17,NNE,26,6.0,9.0,73,0.00,,,0.00,Meteo,2013-02-28 17:02:00,
2013-02-28 11:07:00,26.0,19.0,30.17,North,6,5.0,6.0,74,0.00,,,0.00,Meteo,2013-02-28 17:07:00,
2013-02-28 11:12:00,26.0,19.0,30.17,NE,48,5.0,7.0,74,0.00,,,0.00,Meteo,2013-02-28 17:12:00,
2013-02-28 11:17:00,26.0,19.0,30.17,NNE,33,6.0,9.0,74,0.00,,,0.00,Meteo,2013-02-28 17:17:00,
2013-02-28 11:22:00,26.0,19.0,30.17,NNE,28,8.0,12.0,74,0.00,,,0.00,Meteo,2013-02-28 17:22:00,
2013-02-28 11:27:00,26.0,19.0,30.18,NE,43,8.0,14.0,74,0.00,,,0.00,Meteo,2013-02-28 17:27:00,
2013-02-28 11:32:00,26.0,19.0,30.18,North,11,5.0,7.0,75,0.00,,,0.00,Meteo,2013-02-28 17:32:00,
2013-02-28 11:37:00,26.0,19.0,30.18,NE,43,4.0,7.0,75,0.00,,,0.00,Meteo,2013-02-28 17:37:00,
2013-02-28 11:42:00,26.0,19.0,30.18,NNE,29,6.0,9.0,74,0.00,,,0.00,Meteo,2013-02-28 17:42:00,
2013-02-28 11:47:00,26.0,19.0,30.18,NNE,13,6.0,10.0,75,0.00,,,0.00,Meteo,2013-02-28 17:47:00,
2013-02-28 11:52:00,26.0,19.0,30.18,NNE,12,5.0,8.0,74,0.00,,,0.00,Meteo,2013-02-28 17:52:00,
2013-02-28 11:57:00,26.0,19.0,30.18,NE,34,7.0,10.0,73,0.00,,,0.00,Meteo,2013-02-28 17:57:00,
2013-02-28 12:02:00,26.0,19.0,30.18,NNE,32,4.0,6.0,75,0.00,,,0.00,Meteo,2013-02-28 18:02:00,
2013-02-28 12:07:00,26.0,19.0,30.18,NE,35,4.0,6.0,75,0.00,,,0.00,Meteo,2013-02-28 18:07:00,
2013-02-28 12:12:00,26.0,19.0,30.18,NNE,27,6.0,13.0,74,0.00,,,0.00,Meteo,2013-02-28 18:12:00,
2013-02-28 12:17:00,26.0,19.0,30.18,North,11,6.0,8.0,74,0.00,,,0.00,Meteo,2013-02-28 18:17:00,
2013-02-28 12:22:00,26.0,19.0,30.18,ENE,64,8.0,15.0,73,0.00,,,0.00,Meteo,2013-02-28 18:22:00,
2013-02-28 12:27:00,26.0,19.0,30.18,NE,37,7.0,9.0,73,0.00,,,0.00,Meteo,2013-02-28 18:27:00,
2013-02-28 12:32:00,26.0,19.0,30.18,NE,37,7.0,10.0,74,0.00,,,0.00,Meteo,2013-02-28 18:32:00,
2013-02-28 12:37:00,25.0,18.0,30.18,NNE,20,4.0,7.0,75,0.00,,,0.00,Meteo,2013-02-28 18:37:00,
2013-02-28 12:42:00,25.0,18.0,30.18,NE,36,8.0,13.0,74,0.00,,,0.00,Meteo,2013-02-28 18:42:00,
2013-02-28 12:47:00,25.0,18.0,30.18,NE,44,7.0,10.0,74,0.00,,,0.00,Meteo,2013-02-28 18:47:00,
2013-02-28 12:52:00,25.0,18.0,30.18,NE,36,6.0,10.0,74,0.00,,,0.00,Meteo,2013-02-28 18:52:00,
2013-02-28 12:57:00,25.0,18.0,30.18,NE,36,5.0,8.0,74,0.00,,,0.00,Meteo,2013-02-28 18:57:00,
2013-02-28 13:02:00,25.0,17.0,30.19,NE,39,6.0,10.0,72,0.00,,,0.00,Meteo,2013-02-28 19:02:00,
2013-02-28 13:07:00,25.0,17.0,30.19,ENE,59,7.0,14.0,72,0.00,,,0.00,Meteo,2013-02-28 19:07:00,
2013-02-28 13:12:00,25.0,18.0,30.19,NE,42,5.0,7.0,73,0.00,,,0.00,Meteo,2013-02-28 19:12:00,
2013-02-28 13:18:00,25.0,18.0,30.19,NNE,33,6.0,10.0,73,0.00,,,0.00,Meteo,2013-02-28 19:18:00,
2013-02-28 13:23:00,25.0,17.0,30.19,NNE,31,5.0,9.0,72,0.00,,,0.00,Meteo,2013-02-28 19:23:00,
2013-02-28 13:28:00,25.0,17.0,30.19,NE,45,8.0,13.0,72,0.00,,,0.00,Meteo,2013-02-28 19:28:00,
2013-02-28 13:33:00,25.0,17.0,30.19,NNE,30,5.0,7.0,71,0.00,,,0.00,Meteo,2013-02-28 19:33:00,
2013-02-28 13:38:00,25.0,17.0,30.19,NE,41,6.0,9.0,71,0.00,,,0.00,Meteo,2013-02-28 19:38:00,
2013-02-28 13:43:00,25.0,17.0,30.19,NNE,26,6.0,9.0,72,0.00,,,0.00,Meteo,2013-02-28 19:43:00,
2013-02-28 13:48:00,25.0,18.0,30.19,ENE,60,5.0,7.0,73,0.00,,,0.00,Meteo,2013-02-28 19:48:00,
2013-02-28 13:53:00,25.0,17.0,30.19,NNE,28,7.0,9.0,72,0.00,,,0.00,Meteo,2013-02-28 19:53:00,
2013-02-28 13:58:00,25.0,17.0,30.19,NNE,32,6.0,9.0,72,0.00,,,0.00,Meteo,2013-02-28 19:58:00,
2013-02-28 14:03:00,25.0,17.0,30.19,NNE,33,5.0,8.0,72,0.00,,,0.00,Meteo,2013-02-28 20:03:00,
2013-02-28 14:08:00,25.0,17.0,30.19,NNE,32,5.0,9.0,71,0.00,,,0.00,Meteo,2013-02-28 20:08:00,
2013-02-28 14:13:00,25.0,17.0,30.19,NE,45,4.0,10.0,71,0.00,,,0.00,Meteo,2013-02-28 20:13:00,
2013-02-28 14:18:00,25.0,17.0,30.19,NNE,32,5.0,9.0,71,0.00,,,0.00,Meteo,2013-02-28 20:18:00,
2013-02-28 14:23:00,25.0,17.0,30.19,NNE,28,4.0,7.0,70,0.00,,,0.00,Meteo,2013-02-28 20:23:00,
2013-02-28 14:28:00,25.0,17.0,30.19,NNE,22,4.0,6.0,70,0.00,,,0.00,Meteo,2013-02-28 20:28:00,
2013-02-28 14:33:00,25.0,17.0,30.19,NE,40,5.0,7.0,71,0.00,,,0.00,Meteo,2013-02-28 20:33:00,
2013-02-28 14:38:00,25.0,17.0,30.19,NE,35,5.0,9.0,71,0.00,,,0.00,Meteo,2013-02-28 20:38:00,
2013-02-28 14:43:00,25.0,17.0,30.19,NE,44,5.0,7.0,72,0.00,,,0.00,Meteo,2013-02-28 20:43:00,
2013-02-28 14:48:00,25.0,17.0,30.19,NE,41,5.0,9.0,72,0.00,,,0.00,Meteo,2013-02-28 20:48:00,
2013-02-28 14:53:00,25.0,17.0,30.20,NNE,33,4.0,6.0,72,0.00,,,0.00,Meteo,2013-02-28 20:53:00,
2013-02-28 14:58:00,25.0,18.0,30.20,NNE,24,6.0,8.0,73,0.00,,,0.00,Meteo,2013-02-28 20:58:00,
2013-02-28 15:03:00,25.0,18.0,30.20,NNE,30,4.0,8.0,73,0.00,,,0.00,Meteo,2013-02-28 21:03:00,
2013-02-28 15:08:00,25.0,18.0,30.20,NNE,30,4.0,7.0,73,0.00,,,0.00,Meteo,2013-02-28 21:08:00,
2013-02-28 15:13:00,24.0,17.0,30.21,NE,36,5.0,8.0,73,0.00,,,0.00,Meteo,2013-02-28 21:13:00,
2013-02-28 15:18:00,24.0,16.0,30.21,NNE,30,5.0,7.0,72,0.00,,,0.00,Meteo,2013-02-28 21:18:00,
2013-02-28 15:23:00,24.0,16.0,30.21,NNE,12,3.0,6.0,71,0.00,,,0.00,Meteo,2013-02-28 21:23:00,
2013-02-28 15:28:00,24.0,15.0,30.21,NE,43,5.0,8.0,69,0.00,,,0.00,Meteo,2013-02-28 21:28:00,
2013-02-28 15:33:00,24.0,16.0,30.21,NNE,21,3.0,5.0,70,0.00,,,0.00,Meteo,2013-02-28 21:33:00,
2013-02-28 15:38:00,25.0,17.0,30.21,NE,45,5.0,6.0,70,0.00,,,0.00,Meteo,2013-02-28 21:38:00,
2013-02-28 15:43:00,25.0,16.0,30.22,NE,41,6.0,9.0,69,0.00,,,0.00,Meteo,2013-02-28 21:43:00,
2013-02-28 15:48:00,24.0,15.0,30.22,NE,37,5.0,7.0,69,0.00,,,0.00,Meteo,2013-02-28 21:48:00,
2013-02-28 15:53:00,24.0,15.0,30.22,NE,50,6.0,10.0,69,0.00,,,0.00,Meteo,2013-02-28 21:53:00,
2013-02-28 15:58:00,24.0,15.0,30.22,NE,52,6.0,9.0,69,0.00,,,0.00,Meteo,2013-02-28 21:58:00,
2013-02-28 16:04:00,24.0,15.0,30.22,ENE,69,7.0,10.0,69,0.00,,,0.00,Meteo,2013-02-28 22:04:00,
2013-02-28 16:09:00,24.0,15.0,30.22,NE,52,6.0,8.0,69,0.00,,,0.00,Meteo,2013-02-28 22:09:00,
2013-02-28 16:14:00,24.0,16.0,30.22,NNE,31,4.0,5.0,70,0.00,,,0.00,Meteo,2013-02-28 22:14:00,
2013-02-28 16:19:00,24.0,16.0,30.22,ENE,60,9.0,12.0,70,0.00,,,0.00,Meteo,2013-02-28 22:19:00,
2013-02-28 16:24:00,24.0,16.0,30.22,NE,48,7.0,9.0,70,0.00,,,0.00,Meteo,2013-02-28 22:24:00,
2013-02-28 16:29:00,24.0,16.0,30.22,NE,42,4.0,8.0,71,0.00,,,0.00,Meteo,2013-02-28 22:29:00,
2013-02-28 16:34:00,24.0,16.0,30.22,NE,38,7.0,9.0,71,0.00,,,0.00,Meteo,2013-02-28 22:34:00,
2013-02-28 16:39:00,24.0,16.0,30.22,ENE,62,7.0,10.0,71,0.00,,,0.00,Meteo,2013-02-28 22:39:00,
2013-02-28 16:44:00,24.0,16.0,30.23,NE,39,5.0,6.0,71,0.00,,,0.00,Meteo,2013-02-28 22:44:00,
2013-02-28 16:49:00,24.0,16.0,30.23,NE,51,5.0,9.0,71,0.00,,,0.00,Meteo,2013-02-28 22:49:00,
2013-02-28 16:54:00,24.0,16.0,30.23,NE,51,6.0,11.0,71,0.00,,,0.00,Meteo,2013-02-28 22:54:00,
2013-02-28 16:59:00,24.0,16.0,30.23,NE,42,6.0,9.0,72,0.00,,,0.00,Meteo,2013-02-28 22:59:00,
2013-02-28 17:04:00,24.0,16.0,30.23,NE,54,4.0,6.0,71,0.00,,,0.00,Meteo,2013-02-28 23:04:00,
2013-02-28 17:09:00,24.0,16.0,30.23,NE,44,5.0,7.0,71,0.00,,,0.00,Meteo,2013-02-28 23:09:00,
2013-02-28 17:14:00,24.0,16.0,30.23,NE,47,5.0,7.0,71,0.00,,,0.00,Meteo,2013-02-28 23:14:00,
2013-02-28 17:19:00,24.0,16.0,30.23,NE,56,7.0,10.0,71,0.00,,,0.00,Meteo,2013-02-28 23:19:00,
2013-02-28 17:24:00,24.0,16.0,30.23,NE,42,6.0,9.0,71,0.00,,,0.00,Meteo,2013-02-28 23:24:00,
2013-02-28 17:29:00,24.0,16.0,30.23,NE,49,5.0,10.0,71,0.00,,,0.00,Meteo,2013-02-28 23:29:00,
2013-02-28 17:34:00,24.0,16.0,30.23,NE,43,5.0,8.0,71,0.00,,,0.00,Meteo,2013-02-28 23:34:00,
2013-02-28 17:39:00,24.0,16.0,30.24,NE,38,5.0,7.0,71,0.00,,,0.00,Meteo,2013-02-28 23:39:00,
2013-02-28 17:44:00,24.0,16.0,30.24,ENE,60,3.0,5.0,72,0.00,,,0.00,Meteo,2013-02-28 23:44:00,
2013-02-28 17:49:00,24.0,16.0,30.24,NE,40,3.0,4.0,71,0.00,,,0.00,Meteo,2013-02-28 23:49:00,
2013-02-28 17:54:00,24.0,16.0,30.24,NE,44,5.0,8.0,72,0.00,,,0.00,Meteo,2013-02-28 23:54:00,
2013-02-28 17:59:00,24.0,16.0,30.24,NE,45,5.0,10.0,71,0.00,,,0.00,Meteo,2013-02-28 23:59:00,
2013-02-28 18:04:00,24.0,16.0,30.24,NE,51,6.0,9.0,71,0.00,,,0.00,Meteo,2013-03-01 00:04:00,
2013-02-28 18:09:00,24.0,16.0,30.24,NE,54,4.0,9.0,71,0.00,,,0.00,Meteo,2013-03-01 00:09:00,
2013-02-28 18:14:00,24.0,16.0,30.25,NE,43,5.0,7.0,71,0.00,,,0.00,Meteo,2013-03-01 00:14:00,
2013-02-28 18:19:00,24.0,16.0,30.25,ENE,60,5.0,9.0,70,0.00,,,0.00,Meteo,2013-03-01 00:19:00,
2013-02-28 18:24:00,24.0,16.0,30.25,ENE,66,5.0,8.0,71,0.00,,,0.00,Meteo,2013-03-01 00:24:00,
2013-02-28 18:29:00,24.0,16.0,30.25,NE,43,2.0,4.0,71,0.00,,,0.00,Meteo,2013-03-01 00:29:00,
2013-02-28 18:34:00,24.0,16.0,30.25,NNE,25,4.0,7.0,72,0.00,,,0.00,Meteo,2013-03-01 00:34:00,
2013-02-28 18:39:00,24.0,16.0,30.25,NE,53,4.0,7.0,72,0.00,,,0.00,Meteo,2013-03-01 00:39:00,
2013-02-28 18:44:00,24.0,16.0,30.25,NE,52,5.0,7.0,72,0.00,,,0.00,Meteo,2013-03-01 00:44:00,
2013-02-28 18:49:00,24.0,17.0,30.25,NE,38,4.0,6.0,73,0.00,,,0.00,Meteo,2013-03-01 00:49:00,
2013-02-28 18:54:00,24.0,17.0,30.25,NE,40,4.0,6.0,73,0.00,,,0.00,Meteo,2013-03-01 00:54:00,
2013-02-28 18:59:00,24.0,17.0,30.25,NE,46,4.0,7.0,73,0.00,,,0.00,Meteo,2013-03-01 00:59:00,
2013-02-28 19:04:00,24.0,17.0,30.25,NE,49,3.0,6.0,73,0.00,,,0.00,Meteo,2013-03-01 01:04:00,
2013-02-28 19:09:00,24.0,17.0,30.25,NE,35,5.0,7.0,73,0.00,,,0.00,Meteo,2013-03-01 01:09:00,
2013-02-28 19:14:00,24.0,17.0,30.25,ENE,58,3.0,5.0,73,0.00,,,0.00,Meteo,2013-03-01 01:14:00,
2013-02-28 19:19:00,24.0,17.0,30.25,ENE,64,5.0,6.0,74,0.00,,,0.00,Meteo,2013-03-01 01:19:00,
2013-02-28 19:24:00,24.0,17.0,30.25,ENE,62,7.0,9.0,75,0.00,,,0.00,Meteo,2013-03-01 01:24:00,
2013-02-28 19:29:00,24.0,17.0,30.25,ENE,73,6.0,10.0,74,0.00,,,0.00,Meteo,2013-03-01 01:29:00,
2013-02-28 19:34:00,24.0,17.0,30.25,ENE,76,5.0,7.0,73,0.00,,,0.00,Meteo,2013-03-01 01:34:00,
2013-02-28 19:39:00,24.0,17.0,30.25,NE,56,5.0,9.0,73,0.00,,,0.00,Meteo,2013-03-01 01:39:00,
2013-02-28 19:44:00,24.0,17.0,30.25,NE,52,4.0,7.0,73,0.00,,,0.00,Meteo,2013-03-01 01:44:00,
2013-02-28 19:49:00,24.0,16.0,30.25,ENE,70,4.0,9.0,72,0.00,,,0.00,Meteo,2013-03-01 01:49:00,
2013-02-28 19:54:00,24.0,16.0,30.25,NE,52,4.0,6.0,72,0.00,,,0.00,Meteo,2013-03-01 01:54:00,
2013-02-28 19:59:00,24.0,16.0,30.25,ENE,70,5.0,9.0,71,0.00,,,0.00,Meteo,2013-03-01 01:59:00,
2013-02-28 20:04:00,24.0,15.0,30.25,ENE,78,7.0,11.0,69,0.00,,,0.00,Meteo,2013-03-01 02:04:00,
2013-02-28 20:09:00,24.0,15.0,30.25,ENE,74,5.0,6.0,69,0.00,,,0.00,Meteo,2013-03-01 02:09:00,
2013-02-28 20:14:00,24.0,15.0,30.26,NE,54,7.0,11.0,69,0.00,,,0.00,Meteo,2013-03-01 02:14:00,
2013-02-28 20:19:00,24.0,16.0,30.26,ENE,57,5.0,10.0,70,0.00,,,0.00,Meteo,2013-03-01 02:19:00,
2013-02-28 20:24:00,24.0,16.0,30.26,ENE,78,7.0,11.0,70,0.00,,,0.00,Meteo,2013-03-01 02:24:00,
2013-02-28 20:29:00,24.0,16.0,30.26,ENE,74,4.0,7.0,70,0.00,,,0.00,Meteo,2013-03-01 02:29:00,
2013-02-28 20:34:00,24.0,16.0,30.26,ENE,72,4.0,6.0,71,0.00,,,0.00,Meteo,2013-03-01 02:34:00,
2013-02-28 20:39:00,24.0,16.0,30.26,ENE,74,4.0,8.0,71,0.00,,,0.00,Meteo,2013-03-01 02:39:00,
2013-02-28 20:44:00,24.0,16.0,30.26,ENE,69,5.0,7.0,71,0.00,,,0.00,Meteo,2013-03-01 02:44:00,
2013-02-28 20:49:00,24.0,16.0,30.26,NE,48,4.0,6.0,71,0.00,,,0.00,Meteo,2013-03-01 02:49:00,
2013-02-28 20:54:00,24.0,16.0,30.26,NE,56,4.0,7.0,70,0.00,,,0.00,Meteo,2013-03-01 02:54:00,
2013-02-28 20:59:00,24.0,15.0,30.26,NE,56,7.0,10.0,68,0.00,,,0.00,Meteo,2013-03-01 02:59:00,
2013-02-28 21:04:00,24.0,14.0,30.26,ENE,68,4.0,6.0,66,0.00,,,0.00,Meteo,2013-03-01 03:04:00,
2013-02-28 21:09:00,24.0,14.0,30.26,NE,54,8.0,10.0,64,0.00,,,0.00,Meteo,2013-03-01 03:09:00,
2013-02-28 21:14:00,24.0,13.0,30.26,NE,45,7.0,11.0,63,0.00,,,0.00,Meteo,2013-03-01 03:14:00,
2013-02-28 21:19:00,25.0,14.0,30.27,NE,36,3.0,6.0,62,0.00,,,0.00,Meteo,2013-03-01 03:19:00,
2013-02-28 21:24:00,24.0,13.0,30.27,NE,46,4.0,6.0,63,0.00,,,0.00,Meteo,2013-03-01 03:24:00,
2013-02-28 21:29:00,24.0,13.0,30.26,NE,50,3.0,5.0,63,0.00,,,0.00,Meteo,2013-03-01 03:29:00,
2013-02-28 21:34:00,24.0,13.0,30.27,NE,50,6.0,8.0,62,0.00,,,0.00,Meteo,2013-03-01 03:34:00,
2013-02-28 21:39:00,24.0,13.0,30.27,NE,54,7.0,15.0,63,0.00,,,0.00,Meteo,2013-03-01 03:39:00,
2013-02-28 21:44:00,24.0,13.0,30.27,NE,45,7.0,10.0,63,0.00,,,0.00,Meteo,2013-03-01 03:44:00,
2013-02-28 21:49:00,24.0,13.0,30.26,NE,35,4.0,7.0,63,0.00,,,0.00,Meteo,2013-03-01 03:49:00,
2013-02-28 21:54:00,24.0,13.0,30.26,ENE,59,5.0,7.0,63,0.00,,,0.00,Meteo,2013-03-01 03:54:00,
2013-02-28 21:59:00,24.0,13.0,30.27,ENE,72,4.0,7.0,63,0.00,,,0.00,Meteo,2013-03-01 03:59:00,
2013-02-28 22:04:00,24.0,14.0,30.26,ENE,68,7.0,9.0,64,0.00,,,0.00,Meteo,2013-03-01 04:04:00,
2013-02-28 22:09:00,24.0,13.0,30.26,NE,36,5.0,9.0,63,0.00,,,0.00,Meteo,2013-03-01 04:09:00,
2013-02-28 22:14:00,24.0,13.0,30.26,ENE,58,7.0,9.0,63,0.00,,,0.00,Meteo,2013-03-01 04:14:00,
2013-02-28 22:19:00,24.0,14.0,30.26,ENE,59,7.0,11.0,64,0.00,,,0.00,Meteo,2013-03-01 04:19:00,
2013-02-28 22:24:00,24.0,13.0,30.26,NE,49,5.0,8.0,63,0.00,,,0.00,Meteo,2013-03-01 04:24:00,
2013-02-28 22:29:00,24.0,13.0,30.27,NE,49,5.0,8.0,62,0.00,,,0.00,Meteo,2013-03-01 04:29:00,
2013-02-28 22:34:00,24.0,13.0,30.27,NE,36,6.0,10.0,62,0.00,,,0.00,Meteo,2013-03-01 04:34:00,
2013-02-28 22:39:00,24.0,13.0,30.27,NE,49,6.0,11.0,63,0.00,,,0.00,Meteo,2013-03-01 04:39:00,
2013-02-28 22:44:00,24.0,13.0,30.27,ENE,62,7.0,10.0,63,0.00,,,0.00,Meteo,2013-03-01 04:44:00,
2013-02-28 22:49:00,24.0,13.0,30.27,NE,45,4.0,7.0,63,0.00,,,0.00,Meteo,2013-03-01 04:49:00,
2013-02-28 22:54:00,24.0,14.0,30.27,NE,39,4.0,6.0,65,0.00,,,0.00,Meteo,2013-03-01 04:54:00,
2013-02-28 22:59:00,24.0,15.0,30.27,ENE,60,5.0,11.0,67,0.00,,,0.00,Meteo,2013-03-01 04:59:00,
2013-02-28 23:00:00,24.0,15.0,30.27,ENE,66,5.0,7.0,67,0.00,,,0.00,Meteo,2013-03-01 05:00:00,
2013-02-28 23:01:00,24.0,15.0,30.27,NE,50,6.0,8.0,67,0.00,,,0.00,Meteo,2013-03-01 05:01:00,
2013-02-28 23:06:00,24.0,15.0,30.27,NE,54,5.0,9.0,69,0.00,,,0.00,Meteo,2013-03-01 05:06:00,
2013-02-28 23:08:00,24.0,15.0,30.27,NE,47,6.0,9.0,69,0.00,,,0.00,Meteo,2013-03-01 05:08:00,
2013-02-28 23:13:00,24.0,15.0,30.27,NE,54,7.0,13.0,69,0.00,,,0.00,Meteo,2013-03-01 05:13:00,
2013-02-28 23:18:00,24.0,15.0,30.27,NE,52,6.0,10.0,69,0.00,,,0.00,Meteo,2013-03-01 05:18:00,
2013-02-28 23:23:00,24.0,15.0,30.27,NE,40,5.0,8.0,69,0.00,,,0.00,Meteo,2013-03-01 05:23:00,
2013-02-28 23:28:00,24.0,16.0,30.27,NE,35,4.0,6.0,70,0.00,,,0.00,Meteo,2013-03-01 05:28:00,
2013-02-28 23:33:00,23.0,15.0,30.27,NE,38,5.0,9.0,70,0.00,,,0.00,Meteo,2013-03-01 05:33:00,
2013-02-28 23:38:00,23.0,15.0,30.27,NE,42,5.0,6.0,70,0.00,,,0.00,Meteo,2013-03-01 05:38:00,
2013-02-28 23:43:00,23.0,15.0,30.27,NE,46,8.0,12.0,70,0.00,,,0.00,Meteo,2013-03-01 05:43:00,
2013-02-28 23:48:00,23.0,14.0,30.27,NNE,32,6.0,10.0,69,0.00,,,0.00,Meteo,2013-03-01 05:48:00,
2013-02-28 23:53:00,24.0,15.0,30.27,NE,56,4.0,6.0,69,0.00,,,0.00,Meteo,2013-03-01 05:53:00,
2013-02-28 23:58:00,24.0,15.0,30.27,ENE,69,6.0,11.0,68,0.00,,,0.00,Meteo,2013-03-01 05:58:00,